CW7229 Weather Reports


time (UTC)temp
C
wind
direction
speed
KPH
gust
KPH
rain 1hr
cm
rain 24hr
cm
rain mn
cm
humidity
%
barometer
mb
20260506163113 11 27 6.4 8.0 0.15 3.89 3.89 80 1004.6
20260506153113 11 106 6.4 9.7 0.13 3.73 3.73 79 1004.6
20260506150113 11 48 8.0 14.5 0.20 3.66 3.66 78 1004.6
20260506143113 11 52 6.4 9.7 0.20 3.61 3.61 79 1004.6
20260506140113 11 62 6.4 20.9 0.03 3.45 3.45 78 1004.6
20260506133113 11 59 6.4 12.9 0.03 3.40 3.40 77 1004.6
20260506130113 11 82 9.7 12.9 0.08 3.40 3.40 78 1004.6
20260506123113 11 56 6.4 12.9 0.10 3.38 3.38 80 1003.6
20260506120113 10 360 6.4 11.3 0.13 3.35 3.35 81 1004.7
20260506113113 10 1 8.0 14.5 0.13 3.28 3.28 80 1004.7
20260506103113 10 45 6.4 9.7 0.05 3.15 3.15 78 1004.7
20260506093114 9 74 11.3 14.5 0.08 3.10 3.10 79 1003.7
20260506090114 9 75 11.3 16.1 0.13 3.05 3.05 77 1003.7
20260506083114 9 75 12.9 17.7 0.18 3.02 3.02 78 1003.7
20260506080114 9 19 4.8 12.9 0.20 2.95 2.92 81 1003.7
20260506073114 9 41 8.0 12.9 0.30 2.84 2.84 81 1003.7
20260506060133 9 11 6.4 9.7 0.43 2.34 2.31 81 1002.7
20260506050134 9 32 6.4 9.7 0.33 1.93 1.88 80 1003.7
20260506043114 9 43 9.7 14.5 0.38 1.85 1.75 80 1003.7
20260506033113 10 71 0.0 12.9 0.41 1.50 1.35 81 1003.7
20260506030113 10 31 4.8 8.0 0.38 1.27 1.14 82 1003.6
20260506023114 10 32 9.7 12.9 0.41 1.14 0.97 82 1003.6
20260506020114 11 61 9.7 14.5 0.36 0.91 0.74 82 1003.6
20260506013113 11 339 6.4 14.5 0.30 0.74 0.53 81 1003.6
20260506010113 11 60 11.3 16.1 0.28 0.58 0.38 81 1004.6
20260506003113 11 46 11.3 14.5 0.20 0.43 0.23 80 1004.6
20260506000113 11 71 8.0 17.7 0.10 0.30 0.10 79 1004.6
20260505233113 11 52 6.4 12.9 0.03 0.25 0.03 76 1004.6
20260505230113 11 22 6.4 12.9 0.00 0.23 0.00 73 1005.6
20260505223113 11 64 9.7 17.7 0.00 0.25 0.00 69 1005.6
20260505213113 12 318 6.4 12.9 0.00 0.30 0.30 63 1005.6
20260505210113 12 56 9.7 14.5 0.00 0.30 0.30 61 1005.6
20260505203112 12 24 9.7 16.1 0.00 0.36 0.30 62 1005.6
20260505200112 12 61 12.9 22.5 0.00 0.36 0.30 61 1005.6
20260505193112 12 68 11.3 16.1 0.00 0.53 0.30 59 1005.6
20260505190114 12 41 8.0 12.9 0.00 0.53 0.30 59 1005.6
20260505183114 13 24 12.9 17.7 0.00 0.79 0.30 56 1005.6
20260505180133 13 332 9.7 12.9 0.00 0.79 0.30 57 1005.6